Location: Chris' Backyard Observatory
(47.3045°N, 122.2839°W)
Time: 02:27:59
(UTC-08:00)

Daily predictions for brighter satellites

Satellite Brightness Start Highest point End
(mag) Time Altitude Azimuth Time Altitude Azimuth Time Altitude Azimuth
Cosmos 2369 Rocket 3.9 04:10:40 26° NNE 04:11:43 27° NE 04:16:32 10° ESE
CENTAUR R/B 3.1 04:14:51 54° NE 04:14:51 54° NE 04:20:15 10° NE
Lacrosse 5 4.3 04:14:07 15° SSE 04:15:53 18° ESE 04:19:15 10° E
ATLAS 5 CENTAUR R/B 4.4 04:20:03 14° NNE 04:20:03 14° NNE 04:21:34 10° NNE
Cosmos 2219 Rocket 4.4 04:26:03 14° N 04:26:03 14° N 04:26:57 10° NNE
COSMO-SKYMED 1 4.3 04:26:36 10° SE 04:30:20 29° ENE 04:30:31 29° ENE
Lacrosse 4 Rocket 4.2 04:33:41 11° NNE 04:33:51 11° NNE 04:35:16 10° NE
ATLAS 3B R/B 4.3 04:34:49 21° N 04:34:49 21° N 04:39:59 10° NE
Lacrosse 5 rocket 3.8 04:42:30 17° NNE 04:42:30 17° NNE 04:43:47 10° NE
Tiangong 2 4.4 04:44:45 12° ESE 04:44:45 12° ESE 04:45:06 10° ESE
Cosmos 2333 Rocket 4.1 04:46:13 18° N 04:46:13 18° N 04:47:48 10° NNE
Cosmos 1943 Rocket 3.9 04:50:35 17° N 04:53:42 27° NE 04:58:18 10° ESE
SL-08 ROCKET BODY 4.2 04:56:18 10° S 05:02:15 88° W 05:08:11 10° N
SL-16 R/B 2.7 05:03:59 45° NNW 05:03:59 45° NNW 05:08:18 10° NNE
Cosmos 2327 Rocket 4.4 05:00:07 10° S 05:06:30 88° W 05:12:50 10° N
CZ-4C R/B 4.2 05:10:06 18° NNW 05:12:01 20° N 05:16:58 10° NE
Cosmos 2056 Rocket 3.3 05:14:21 69° W 05:14:41 72° WSW 05:19:45 10° SSE
Cosmos 2074 Rocket 3.8 05:09:33 10° SSW 05:15:49 73° W 05:22:06 10° N
SL-23 DEB 4.4 05:16:38 42° ENE 05:16:38 42° ENE 05:19:04 10° E
Abrixas rocket 4.2 05:16:06 25° SSE 05:16:23 25° SSE 05:19:13 10° E
ADEOS II 3.6 05:11:53 10° N 05:13:47 21° N 05:13:47 21° N
SKYMED 2 3.5 05:13:55 10° SSE 05:18:16 85° ENE 05:19:09 56° N
Meteor 1-25 Rocket 4.2 05:15:22 10° SSW 05:21:05 58° WNW 05:26:50 10° N
Meteor 1-28 Rocket 4.1 05:18:35 10° SSE 05:22:15 49° ENE 05:24:18 23° N
Meteor 1-11 Rocket 4.2 05:18:04 10° S 05:23:48 62° E 05:29:26 10° NNE
Cosmos 1624 Rocket 4.1 05:27:43 50° W 05:28:09 52° WSW 05:33:18 10° S
Ariane Rocket 3.7 05:23:46 10° NNE 05:28:45 55° E 05:33:42 10° S
SJ-6F 4.2 05:26:57 10° N 05:31:03 73° WNW 05:35:05 10° SSW
Meteor 1-13 Rocket 4.2 05:25:51 12° NNW 05:31:26 77° W 05:37:21 10° S
Cosmos 2237 Rocket 3.8 05:34:02 17° NNW 05:34:02 17° NNW 05:36:22 10° N
Cosmos 2184 Rocket 4.0 05:27:04 10° SSW 05:33:06 57° WNW 05:39:15 10° N
DMSP B5D1-3 4.4 05:28:43 10° SSE 05:33:53 85° WSW 05:38:20 14° NNW
CZ-3 R/B 4.1 05:38:25 10° SSW 05:40:42 11° SSW 05:42:30 10° S
CSL-04 Rocket 4.3 05:35:29 10° NNE 05:40:59 58° ESE 05:46:24 10° S
Cosmos 1025 Rocket 3.2 05:37:37 11° N 05:41:53 71° E 05:46:14 10° SSE
USA 215 3.4 05:36:52 10° NE 05:43:26 76° SE 05:49:58 10° SW
Radarsat Rocket 4.4 05:40:52 10° NNE 05:47:51 81° WNW 05:55:46 10° SSW
Cosmos 2154 Rocket 3.9 05:42:39 10° SSW 05:48:52 79° W 05:55:06 10° N
Meteor 2-4 Rocket 3.6 05:43:55 10° NNW 05:49:26 88° W 05:55:06 10° S
CZ-4 R/B 3.2 05:49:22 10° NNE 05:52:58 33° E 05:56:31 10° SSE
Cosmos 44 Rocket 3.3 05:49:54 10° SW 05:55:05 85° NW 06:00:13 10° NE
Cosmos 2369 Rocket 2.2 05:52:29 22° NW 05:56:11 62° WSW 06:01:47 10° S
Cosmos 1536 2.7 05:53:44 10° S 05:57:44 84° W 06:01:47 10° N
Lacrosse 5 1.9 05:53:25 12° SW 05:58:12 84° SE 06:03:20 10° NE
Okean 1 Rocket 3.1 05:55:56 10° SSW 06:00:14 53° WNW 06:04:31 10° N
Cosmos 1603 3.8 05:55:07 10° SW 06:00:38 51° WNW 06:06:10 10° NNE
Cosmos 1900 4.2 05:58:03 23° NW 06:01:11 85° WSW 06:06:08 10° SSE
Cosmos 192 4.3 05:57:07 10° SW 06:01:57 57° WNW 06:06:48 10° NNE
Cosmos 1452 Rocket 3.5 05:59:54 17° NNW 06:03:57 64° WSW 06:09:09 10° S
SL-24 DEB 4.2 05:59:21 10° S 06:04:07 69° W 06:08:55 10° N
CENTAUR R/B 3.5 06:02:04 23° WNW 06:04:51 31° NNW 06:11:15 10° NE
ATLAS 5 CENTAUR R/B 4.1 06:01:36 11° NNW 06:05:03 18° NNE 06:09:05 10° ENE
COSMO-SKYMED 1 3.3 06:02:35 10° SSW 06:06:27 31° W 06:07:43 26° WNW
Lacrosse 4 Rocket 1.9 06:10:03 14° NNW 06:13:32 56° NE 06:17:33 10° SE
Okean 1-7 Rocket 4.2 06:13:50 17° NW 06:16:31 33° W 06:20:27 10° SSW
Tiangong 2 2.6 06:16:48 18° WSW 06:18:24 27° SSW 06:21:08 10° SE
IRS-1A Rocket 4.4 06:13:36 10° NNE 06:19:20 82° ESE 06:25:08 10° SSW
GRACE-2 3.7 06:16:51 10° N 06:19:39 70° W 06:22:24 10° S
SOZ 3.6 06:19:14 40° W 06:19:46 67° NNW 06:21:48 10° ENE
SL-8 Rocket 4.1 06:13:45 10° S 06:20:01 86° E 06:26:17 10° N
GRACE-1 3.7 06:17:17 10° N 06:20:04 68° W 06:22:49 10° S
Lacrosse 5 rocket 3.0 06:18:13 16° NNW 06:20:26 23° N 06:23:59 10° ENE
Cosmos 1892 Rocket 3.5 06:19:42 10° NNW 06:24:10 73° W 06:28:37 10° S
Cosmos 1943 3.1 06:18:53 10° SW 06:24:29 67° WNW 06:30:09 10° NNE
Cosmos 1633 3.6 06:23:28 10° SW 06:26:30 25° WNW 06:29:33 10° NNW
ATLAS 3B R/B 4.2 06:22:12 10° NW 06:28:01 26° NNE 06:33:35 10° ENE
Cosmos 2366 rocket 4.2 06:25:45 10° S 06:32:02 79° E 06:38:25 10° N
Cosmos 1959 Rocket 4.5 06:28:04 10° S 06:34:10 89° WNW 06:40:19 10° N
USA 129 3.4 06:33:57 10° SW 06:35:19 18° WSW 06:35:19 18° WSW
Cosmos 1626 Rocket 4.2 06:33:24 10° N 06:37:49 58° ENE 06:42:09 10° SSE
Cosmos 1943 Rocket 2.2 06:32:25 10° NNW 06:37:51 60° WSW 06:43:15 10° S
Cosmos 2218 Rocket 4.1 06:32:41 10° S 06:39:06 83° W 06:45:33 10° N
PAYLOAD A 4.1 06:33:55 10° N 06:39:16 74° WNW 06:44:41 10° SSW
Helios 1B rocket 2.4 06:36:57 10° S 06:41:05 69° WSW 06:45:14 10° NNW
Cosmos 839 Rocket 4.1 06:34:36 10° NW 06:41:18 69° WSW 06:47:22 10° SSE
Cosmos 1975 3.5 06:38:11 10° S 06:42:13 61° E 06:46:18 10° NNE
Cosmos 1269 Rocket 4.0 06:40:21 10° SSW 06:45:39 87° WNW 06:51:00 10° NNE
SL-16 R/B 3.9 06:45:55 11° WNW 06:48:11 14° NW 06:51:04 10° N
SMAP 3.0 06:46:50 10° NNE 06:51:32 80° WNW 06:56:11 10° SSW
Cosmos 1500 3.8 06:48:07 10° S 06:51:50 61° E 06:55:33 10° NNE
Cosmos 1455 Rocket 3.0 06:48:15 10° SSW 06:52:34 70° W 06:56:55 10° N
Abrixas rocket 2.3 06:49:40 10° WSW 06:53:02 85° S 06:56:24 10° ENE
Cosmos 44 3.6 06:48:21 10° SW 06:53:33 52° NW 06:58:34 10° NNE
MSX 4.3 06:48:52 10° NNE 06:54:38 68° ESE 07:00:20 10° S
SJ-7 4.4 06:51:09 10° N 06:55:20 74° WNW 06:59:26 10° SSW
Cosmos 405 Rocket 3.7 06:52:17 10° N 06:56:01 47° ENE 06:59:39 10° SSE
Cosmos 2084 3.3 06:55:09 10° SW 06:59:00 78° SE 07:02:49 10° NE
Cosmos 1727 Rocket 4.0 06:54:20 10° NNW 07:00:27 64° W 07:06:34 10° S
Cosmos 1656 Rocket 3.7 06:56:37 10° NNW 07:02:18 81° WSW 07:07:58 10° SSE
CZ-4C R/B 3.9 06:56:29 10° NNW 07:02:37 35° NNE 07:09:25 10° E
Cosmos 1980 Rocket 4.4 07:00:32 10° N 07:03:01 13° NNE 07:05:30 10° ENE
USA 229 DEB 3.7 06:56:45 10° SW 07:03:39 76° NW 07:10:41 10° NE
USA 229 3.7 06:56:52 10° SW 07:03:45 76° NW 07:10:47 10° NE
Cosmos 1066 Rocket 4.2 06:58:52 10° NNW 07:04:17 90° WSW 07:09:46 10° S
MOS 1 4.3 06:59:41 10° NNE 07:05:20 73° WNW 07:10:58 10° SSW
SPOT 3 Rocket 3.5 07:00:29 10° N 07:05:37 69° WNW 07:10:44 10° SSW
Meteor 1-29 3.4 07:02:40 10° S 07:05:52 39° W 07:09:05 10° NNW
Cosmos 1340 4.0 07:03:48 10° NW 07:06:46 22° W 07:09:44 10° SW
Ariane Rocket 4.0 07:03:25 10° N 07:07:22 23° WNW 07:11:17 10° WSW
CZ-4 R/B 4.4 07:03:37 10° N 07:07:48 71° WNW 07:11:56 10° SSW
